Regional Weather Roundup
Issued by NWS

Home | Current Version | Previous Version | Text Only | Print | Product List | Glossary Off
Versions: 1 2 3 4 5 6 7 8 9 10 11 12 13 14 15 16 17 18 19 20 21 22 23 24 25 26 27

000
ASUS45 KSLC 101510
RWRUT

UTAH REGIONAL WEATHER ROUNDUP
NATIONAL WEATHER SERVICE SALT LAKE CITY UT
800 AM MST SAT DEC 10 2016

UTZ001>011-023>025-101600-

NORTHERN UTAH

CITY           SKY/WX    TMP DP  RH WIND       PRES   REMARKS
BRIGHAM CITY     N/A     38  34  87 E3        29.95F
HILL AFB       MIX PCPN  38  35  89 SE9       29.96F FOG     WCI  31
LOGAN          LGT RAIN  37  36  96 S6        29.93F WCI  32
OGDEN          LGT RAIN  39  36  89 SE9       29.95F WCI  33
SALT LAKE CITY LGT RAIN  41  37  86 E3        29.96F
WENDOVER       CLOUDY    30  23  74 CALM      29.94F
HEBER CITY     MIX PCPN  37  32  81 SW17G23   29.98S WCI  28

$$

UTZ011>015-024>027-101600-

CENTRAL/NORTHEAST UTAH

CITY           SKY/WX    TMP DP  RH WIND       PRES   REMARKS
PROVO AIRPORT  CLOUDY    39  36  87 S6        30.00F WCI  35
MOAB/CANYONLAN MOCLDY    22  12  65 NW12      30.13R WCI  10
DELTA          CLOUDY    43  34  70 S28G37    29.98F
PRICE          CLOUDY    23  16  74 CALM      30.09F
RICHFIELD      CLOUDY    46  27  46 SE12G18   30.01S
ROOSEVELT      CLOUDY    19  18  93 W5        30.10R WCI  13
VERNAL         CLOUDY    16  12  84 W3        30.06F

$$

UTZ013>016-019>022-027-101600-

SOUTHERN UTAH

CITY           SKY/WX    TMP DP  RH WIND       PRES   REMARKS
BRYCE CANYON   MOCLDY    16  12  84 SW5       30.14F WCI   9
CEDAR CITY     MOCLDY    32  28  85 SE5       30.10R WCI  27
MILFORD        CLOUDY    42  34  73 S30G37    30.04S
ST GEORGE      CLOUDY    41  27  56 CALM      30.18S
HANKSVILLE     MOCLDY    19  10  68 CALM      30.16F
KANAB          CLOUDY    32  28  86 CALM      30.22S
BLANDING       CLEAR     26  22  86 W5        30.25F WCI  20

$$

REGIONAL REPORTS     COLORADO/ARIZONA

CITY           SKY/WX    TMP DP  RH WIND       PRES   REMARKS
CRAIG, CO      CLOUDY    27  22  81 E7        29.99F WCI  19
GRAND JUNCTION CLOUDY    23  20  88 NW6       30.13S WCI  16
RIFLE, CO      CLOUDY    22  19  89 CALM      30.12F
MONTROSE, CO   CLOUDY    25  22  88 CALM      30.14F
CORTEZ, CO     CLOUDY    20  17  88 NE3       30.19F
COLORADO CITY  CLOUDY    36  34  93 CALM      30.20S
PAGE, AZ       CLOUDY    33  18  53 SW5       30.17S WCI  29
GRAND CANYON   PTCLDY    21  19  92 CALM      30.21F
KINGMAN, AZ    PTCLDY    42  34  73 SE6       30.14S
FLAGSTAFF, AZ  CLEAR     26  26 100 CALM      30.23S

$$

REGIONAL REPORTS    NEVADA/IDAHO/WYOMING

CITY           SKY/WX    TMP DP  RH WIND       PRES   REMARKS
LAS VEGAS, NV  MOCLDY    42  19  39 CALM      30.13S
ELY, NY        CLOUDY    38  27  64 VRB6      30.02S WCI  33
ELKO, NV       RAIN      36  33  89 W6        29.93F WCI  31
POCATELLO, ID  LGT RAIN  37  34  89 S14       29.85F WCI  28
BURLEY, ID     LGT RAIN  37  35  92 SW13      29.84F WCI  29
FORT BRIDGER,  CLOUDY    36  36 100 W24G30    29.93F WCI  24
EVANSTON, WY   SNOW      33  30  88 SW18      29.93F VSB 1/4 WCI  22
ROCK SPRINGS,  CLOUDY    33  25  72 SW10      29.91F WCI  25
KEMMERER, WY   LGT SNOW  32  32 100 SW16G22   29.90S WCI  21

$$




USA.gov is the U.S. government's official web portal to all federal, state and local government web resources and services.